Regional Weather Roundup
Issued by NWS

Home | Current Version | Previous Version | Graphics & Text | Print | Product List | Glossary Off
Versions: 1 2 3 4 5 6 7 8 9 10 11 12 13 14 15 16 17 18 19 20 21 22 23 24 25 26 27 28 29 30 31 32 33 34 35 36 37 38 39 40 41 42 43 44 45 46 47 48 49 50

000
ASUS43 KMKX 261200
RWRWI

WISCONSIN REGIONAL WEATHER ROUNDUP
NATIONAL WEATHER SERVICE MILWAUKEE/SULLIVAN WI
700 AM CDT TUE JUL 26 2016

NOTE: "FAIR" INDICATES FEW OR NO CLOUDS BELOW 12,000 FEET WITH NO
SIGNIFICANT WEATHER AND/OR OBSTRUCTIONS TO VISIBILITY.

WIZ001-002-006>008-014>016-023>028-261300-
NORTHWEST WISCONSIN

CITY           SKY/WX    TMP DP  RH WIND       PRES   REMARKS
SUPERIOR ARPT  CLOUDY    68  65  92 SW5       29.98S
ASHLAND          N/A     71  65  81 SW5       30.02R
6HR MIN TEMP:  65; 6HR MAX TEMP:  71;

HAYWARD        PTSUNNY   63  61  93 CALM      30.05S
6HR MIN TEMP:  59; 6HR MAX TEMP:  64;

SIREN          PTSUNNY   72  64  78 S5        30.03S
CUMBERLAND     CLOUDY    63  61  94 S3        30.06S
RICE LAKE      MOSUNNY   62  61  96 CALM      30.07S
CHETEK         PTSUNNY   63  63  99 MISG      30.07R
LADYSMITH      SUNNY     62  60  95 CALM      30.09R
EAU CLAIRE     NOT AVBL
MENOMONIE      MOSUNNY   64  63  97 CALM      30.06S
NEW RICHMOND   SUNNY     68  65  90 S5        30.05S
OSCEOLA        SUNNY     67  67 100 S6        30.06S
$$

WIZ003>005-009-010-017-018-261300-
NORTH CENTRAL WISCONSIN

CITY           SKY/WX    TMP DP  RH WIND       PRES   REMARKS
MANITOWISH WTR SUNNY     61  61 100 CALM      30.07R
ARBOR VITAE    SUNNY     62  60  94 CALM      30.08R
WOODRUFF       SUNNY     62  60  94 CALM      30.08R
RHINELANDER    SUNNY     66  62  87 W6        30.09R
6HR MIN TEMP:  59; 6HR MAX TEMP:  66;

EAGLE RIVER    SUNNY     60  60 100 CALM      30.07R
LAND O LAKES   SUNNY     56  56 100 CALM      30.08R
PHILLIPS       SUNNY     63  62  97 CALM      30.08R
TOMAHAWK       SUNNY     58  57  96 CALM      30.09R
MEDFORD        SUNNY     61  61 100 CALM      30.09R
MERRILL        SUNNY     56  56 100 CALM      30.09R
$$

WIZ029-030-035-036-043>047-261300-
CENTRAL WISCONSIN

CITY           SKY/WX    TMP DP  RH WIND       PRES   REMARKS
WAUSAU         SUNNY     66  63  90 VRB3      30.07R
6HR MIN TEMP:  61; 6HR MAX TEMP:  66;

MOSINEE        SUNNY     64  64 100 W5        30.10R
MARSHFIELD     SUNNY     67  63  87 CALM      30.08R
6HR MIN TEMP:  63; 6HR MAX TEMP:  67;

STEVENS POINT  SUNNY     59  58  96 CALM      30.09R
WAUPACA        MOSUNNY   65  65  99 CALM      30.06S
WAUTOMA        SUNNY     63  62  97 CALM      30.08
6HR MIN TEMP:  59; 6HR MAX TEMP:  63;

WISC RAPIDS    SUNNY     65  62  90 CALM      30.09R
6HR MIN TEMP:  59; 6HR MAX TEMP:  65;

CAMP DOUGLAS   SUNNY     59  59 100 E1        30.07S
$$

WIZ011>013-019>022-031-037>040-048>050-261300-
NORTHEAST WISCONSIN

CITY           SKY/WX    TMP DP  RH WIND       PRES   REMARKS
ANTIGO         SUNNY     59  59  99 CALM      30.09R
SHAWANO        SUNNY     65  62  88 W3        30.06R
OCONTO         MOSUNNY  N/A N/A N/A CALM      30.03S
STURGEON BAY   SUNNY     69  66  90 CALM      30.05R
6HR MIN TEMP:  64; 6HR MAX TEMP:  69;

GREEN BAY      SUNNY     65  65 100 CALM      30.05R
6HR MIN TEMP:  60; 6HR MAX TEMP:  66;

MANITOWOC      NOT AVBL
APPLETON       MOSUNNY   66  64  94 W8        30.05R
CLINTONVILLE   SUNNY     63  61  94 CALM      30.06R
OSHKOSH        SUNNY     66  62  87 S5        30.07R
6HR MIN TEMP:  62; 6HR MAX TEMP:  69;

$$

WIZ032>034-041-042-053>061-261300-
SOUTHWEST WISCONSIN

CITY           SKY/WX    TMP DP  RH WIND       PRES   REMARKS
LA CROSSE      CLOUDY    67  66  97 SE6       30.06F FOG
6HR MIN TEMP:  66; 6HR MAX TEMP:  70;

SPARTA         PTSUNNY   57  57  99 CALM      30.09R
VIROQUA        MOSUNNY   63  63 100 CALM      30.09S
BOSCOBEL       FOG       65  64  97 CALM      30.09S VSB<1/4
6HR MIN TEMP:  62; 6HR MAX TEMP:  66;

PRAIRIE DU CHI RAIN      65  64  95 E3        30.08S VSB<1/4
PLATTEVILLE    SUNNY     64  64 100 CALM      30.09S
$$

WIZ056-057-062-063-064-067-068-261300-
SOUTH CENTRAL WISCONSIN

CITY           SKY/WX    TMP DP  RH WIND       PRES   REMARKS
REEDSBURG      SUNNY     61  61 100 CALM      30.08S
BARABOO/DELLS  SUNNY     62  61  94 S3        30.08F
LONE ROCK      NOT AVBL
MINERAL POINT  SUNNY     64  63  94 CALM      30.09S
MADISON        MOSUNNY   68  65  90 CALM      30.08S
6HR MIN TEMP:  63; 6HR MAX TEMP:  68;

MIDDLETON        N/A     64  64 100 CALM      30.09S
WATERTOWN      MOSUNNY   64  64 100 CALM      30.08S
MONROE         SUNNY     70  61  73 NE3       30.09S
JANESVILLE     SUNNY     66  64  94 CALM      30.08S
$$

WIZ051-052-058>065-066-070>072-261300-
SOUTHEAST WISCONSIN

CITY           SKY/WX    TMP DP  RH WIND       PRES   REMARKS
MILWAUKEE      MOSUNNY   74  64  71 NW3       30.07R
6HR MIN TEMP:  68; 6HR MAX TEMP:  75;

WAUKESHA       NOT AVBL
MILWAUKEE/TIMM SUNNY     66  59  77 CALM      30.08R
RACINE         SUNNY     71  63  75 NW6       30.09R
6HR MIN TEMP:  66; 6HR MAX TEMP:  71;

BURLINGTON     SUNNY     63  63  99 CALM      30.08S
KENOSHA        SUNNY     70  64  81 NW5       30.08R
6HR MIN TEMP:  63; 6HR MAX TEMP:  70;

FOND DU LAC    SUNNY     68  63  84 SW3       30.08R
6HR MIN TEMP:  62; 6HR MAX TEMP:  70;

SHEBOYGAN      SUNNY     68  65  90 SW3       30.07R
6HR MIN TEMP:  62; 6HR MAX TEMP:  68;

WEST BEND      MOSUNNY   63  61  94 CALM      30.08R
JUNEAU         MOSUNNY   61  60  96 CALM      30.09S
$$

LSZ147-162-261300-
LAKE SUPERIOR

STATION/POSITION TIME  TEMP    WIND        PRES    WAVE
                       AIR SEA DIR/SP/G            HT/PER
                 (UTC) (F)     (DEG/KT/KT) (MB)    (FT/S)
W MID LAKE BUOY  1050   63 60  230/  8/ 10 1014.7R   0
DEVILS ISLAND    1100   69     220/ 12/ 13 1015.0F
SAXON HARBOR     1100   69     180/  5/ 10 1015.9
$$

LMZ867-665-643>646-261300-
LAKE MICHIGAN

STATION/POSITION TIME  TEMP    WIND        PRES    WAVE
                       AIR SEA DIR/SP/G            HT/PER
                 (UTC) (F)     (DEG/KT/KT) (MB)    (FT/S)
CHAMBERS ISLAND  1100   66     210/  3/  4 1016.3F
S GREEN BAY BUOY 1100   70 74  240/  6/  6   N/A
N MID LAKE BUOY  1050   70 69  250/  8/  8 1015.5R   1
NORTHPORT PIER   1100   69     280/  2/  4 1016.3S
SISTER BAY       1121   71     270/  4/  4   N/A
ALGOMA LAKESHORE 1113          320/  7/  9   N/A
KEWAUNEE LAKESHO 1100   64     300/  5/  6 1016.5R
SHEBOYGAN LAKESH 1100   69     270/  1/  2 1017.6R
PORT WASHINGTON  1100   70     300/  7/  8 1018.3S
ATWATER BUOY     1100   63 58   CALM  /  2 1019.5R
MILWAUKEE LAKESH 1110   70     110/  1/  2   N/A
S MID LAKE BUOY  1050   74 73  260/  6/  8 1017.1R   0
KENOSHA   LAKESH 1100   71     310/  4/  5 1017.9R
$$

TC  - TEMPERATURE IN CELSIUS
VSB - VISIBILITY IN STATUTE MILES
WCI - WIND CHILL INDEX
HX  - HEAT INDEX





USA.gov is the U.S. government's official web portal to all federal, state and local government web resources and services.